Location: Newark
(40.9833°N, 0.0333°W)
Time: 00:41:01
(UTC+00:00)

X-37B - Visible Passes

Search period start: 21 September 2020 00:00
Search period end: 01 October 2020 00:00
Orbit: 386 x 387 km, 45.0° (Epoch: 18 September)

Date Brightness Start Highest point End Pass type
(mag) Time Alt. Az. Time Alt. Az. Time Alt. Az.
21 Sep 2.3 03:42:02 33° NE 03:42:02 33° NE 03:44:17 10° ENE visible
21 Sep 0.6 05:14:51 10° WNW 05:18:02 75° SSW 05:21:12 10° ESE visible
22 Sep 0.7 04:18:37 44° NW 04:19:27 69° NNE 04:22:37 10° ESE visible
23 Sep 3.5 03:23:01 17° E 03:23:01 17° E 03:23:54 10° E visible
23 Sep 1.1 04:55:18 17° W 04:57:25 42° SSW 05:00:27 10° SE visible
24 Sep 1.6 03:59:50 42° SE 03:59:50 42° SE 04:02:04 10° ESE visible
25 Sep 1.9 04:36:50 23° SSW 04:36:50 23° SSW 04:39:21 10° SSE visible
30 Sep 3.2 19:29:05 10° SSW 19:29:30 13° SSW 19:29:30 13° SSW visible
